Lanai City, HI

1:55 PM HST on September 21, 2017 (GMT -1000)
Lanai City

Weather History for PHNY - October, 2012

Change the Weather History Date:

Wednesday, October 17, 2012

  Actual Average Record
Temperature  
Mean Temperature 73 °F -  
Max Temperature 82 °F 81 °F 86 °F (1998)
Min Temperature 64 °F 66 °F 59 °F (1955)
Cooling Degree Days 8    
Growing Degree Days 23 (Base 50)    
Moisture  
Dew Point 64 °F    
Average Humidity 77    
Maximum Humidity 96    
Minimum Humidity 47    
Precipitation  
Precipitation 0.00 in - - ()
Sea Level Pressure  
Sea Level Pressure 29.96 in    
Wind  
Wind Speed 3 mph (NNE)    
Max Wind Speed 8 mph    
Max Gust Speed -    
Visibility 10 miles    
Events Rain    
Averages and records for this station are not official NWS values.
T = Trace of Precipitation, MM = Missing Value Source: NWS Daily Summary

Daily Weather History Graph

Daily Weather History Graph

Search for Another Location

Airport or City:

Trip Planner

Search our weather history database for the weather conditions in past years. The results will help you decide how hot, cold, wet, or windy it might be!

Date:

Astronomy

Oct. 17, 2012 Rise Set
Actual Time 6:24 AM HST 6:01 PM HST
Civil Twilight 6:01 AM HST 6:23 PM HST
Nautical Twilight 5:35 AM HST 6:49 PM HST
Astronomical Twilight 5:10 AM HST 7:15 PM HST
Moon 8:48 AM HST (10/17) 8:12 PM HST (10/17)
Length of Visible Light 12h 22m
Length of Day
11h 37m
Waxing Crescent, 8% of the Moon is Illuminated
Oct 17
Waxing Crescent
Oct 21
First Quarter
Oct 29
Full
Nov 6
Last Quarter
Nov 13
New

Hourly Weather History & Observations

Time (HST) Temp. Heat Index Dew Point Humidity Pressure Visibility Wind Dir Wind Speed Gust Speed Precip Events Conditions
12:56 AM 65.8 °F - 63.9 °F 93% 29.96 in 10.0 mi North 4.6 mph - N/A   Clear
1:56 AM 65.8 °F - 63.9 °F 93% 29.95 in 10.0 mi Calm Calm - N/A   Clear
2:56 AM 66.9 °F - 65.8 °F 96% 29.94 in 10.0 mi Calm Calm - N/A   Clear
3:56 AM 66.9 °F - 64.9 °F 93% 29.93 in 10.0 mi ENE 5.8 mph - N/A   Scattered Clouds
4:56 AM 64.9 °F - 63.0 °F 93% 29.93 in 10.0 mi Calm Calm - N/A   Partly Cloudy
5:56 AM 66.9 °F - 63.9 °F 90% 29.94 in 10.0 mi Calm Calm - N/A   Clear
6:56 AM 68.9 °F - 65.8 °F 90% 29.96 in 10.0 mi North 6.9 mph - N/A   Clear
7:56 AM 73.9 °F - 66.9 °F 79% 29.97 in 10.0 mi NNE 8.1 mph - N/A   Partly Cloudy
8:56 AM 77.9 °F - 64.9 °F 64% 29.98 in 10.0 mi NNE 8.1 mph - N/A   Clear
9:56 AM 82.9 °F 83.3 °F 61.0 °F 47% 29.98 in 10.0 mi NNW 4.6 mph - N/A   Scattered Clouds
10:56 AM 78.8 °F - 62.6 °F 57% 30.03 in 10.0 mi Calm Calm - N/A   Mostly Cloudy
11:56 AM 79.0 °F - 63.0 °F 58% 29.96 in 10.0 mi South 4.6 mph - N/A   Mostly Cloudy
12:56 PM 77.9 °F - 64.9 °F 64% 29.94 in 10.0 mi ESE 4.6 mph - N/A   Scattered Clouds
1:56 PM 78.8 °F - 64.4 °F 61% 29.98 in 10.0 mi SSE 3.5 mph - N/A   Scattered Clouds
2:56 PM 79.0 °F - 64.9 °F 62% 29.91 in 10.0 mi North 5.8 mph - N/A   Mostly Cloudy
3:05 PM 78.8 °F - 66.2 °F 65% 29.98 in 10.0 mi Calm Calm - N/A   Mostly Cloudy
3:56 PM 75.9 °F - 64.9 °F 69% 29.92 in 10.0 mi Calm Calm - 0.00 in Rain Light Rain
4:17 PM 75.2 °F - 64.4 °F 69% 29.98 in 10.0 mi Calm Calm - 0.00 in   Mostly Cloudy
4:56 PM 75.2 °F - 64.4 °F 69% 29.98 in 10.0 mi Calm Calm - N/A   Mostly Cloudy
5:19 PM 75.2 °F - 64.4 °F 69% 29.98 in 10.0 mi Calm Calm - N/A   Scattered Clouds
5:56 PM 72.9 °F - 64.9 °F 76% 29.94 in 10.0 mi Calm Calm - N/A   Clear
6:56 PM 70.0 °F - 63.9 °F 81% 29.96 in 10.0 mi Calm Calm - N/A   Clear
7:56 PM 66.9 °F - 63.0 °F 87% 29.97 in 10.0 mi Calm Calm - N/A   Clear
8:56 PM 70.0 °F - 64.9 °F 84% 29.98 in 10.0 mi NNE 5.8 mph - N/A   Scattered Clouds
9:56 PM 66.9 °F - 63.0 °F 87% 29.98 in 10.0 mi Calm Calm - N/A   Clear
10:56 PM 66.9 °F - 63.9 °F 90% 29.99 in 10.0 mi Calm Calm - N/A   Clear
11:56 PM 65.8 °F - 63.9 °F 93% 29.99 in 10.0 mi Calm Calm - N/A   Clear